Terminal Aerodrome Forecast
Issued by NWS

Home | Current Version | Previous Version | Text Only | Print | Product List | Glossary On
Versions: 1 2 3 4 5 6 7 8 9 10 11 12 13 14 15 16
000
FTUS46 KSGX 251738
TAFSNA
TAF
KSNA 251738Z 2518/2618 23010KT P6SM SCT025 BKN040
     FM252000 24012G18KT P6SM BKN040
     FM260200 VRB05KT P6SM SCT020 SCT035
     FM260500 VRB05KT P6SM BKN020=

USA.gov is the U.S. government's official web portal to all federal, state and local government web resources and services.